Location: K�ln
(50.9455°N, 6.9544°E)
Time: 13:46:15
(UTC+01:00)

ISS - Pass Details

Date: 14 November 2017
Orbit: 402 x 407 km, 51.6° (Epoch: 22 November)

Event Time Altitude Azimuth Distance (km) Brightness Sun altitude
Exits shadow 05:45:15 46° 199° (SSW) 554 -3.3 -19.0°
Drops below altitude 10° 05:48:18 10° 131° (SE) 1,452 -0.2 -18.5°
Sets 05:50:24 0° 125° (SE) 2,309 1.1 -18.2°
